Retour au catalogue

DIRECTV 14

ActifCommunicationsGEO
NORAD 40333·PAYLOAD·🇺🇸 United States

Lancé Dec 6, 2014 depuis Guiana Space Centre

Loading…

TLE

FraisSource: Space-Track

Époque: Sep 14, 2026, 15:28 UTC

1 40333U 14078B   26257.64454825 -.00000133  00000-0  00000-0 0  9991
2 40333   0.0146  86.7277 0000721 349.2822  50.4042  1.00271254 42949

Suivez DIRECTV 14 en temps réel avec AllMySat

Download on the App Store